星链-5686 (STARLINK-5686 )

导读

STARLINK-5686是美国SpaceX公司星链计划中的一颗卫星,于2023年2月2日发射入轨,属于低轨卫星星座组网卫星,主要用于提供全球覆盖的高速互联网服务。星链卫星网络在通信、导航等领域具备广泛应用潜力,该卫星的成功发射进一步推动了星链星座的部署进程,提升了星座的服务覆盖能力。

基本信息
目录编号:
55450
目录名称:
STARLINK-5686
国际标识:
2023-015B
轨道中心:
EARTH
卫星名称:
星链-5686
卫星全名:
星链-5686 (STARLINK-5686 )
卫星状态:
在轨 (已飞行1318 天)
发射日期:
2023-02-02 UTC
国别 :
美国 (US)
星等 :
--
该卫星已列入 空间交会检测服务 Space Conjunction Data Service (SCDS) ,当前飞行风险评估等级: 无高风险
轨道信息
数据来源 国际轨道数据
星历时间: 2026-09-12T15:59:14+0800
10小时前
查看轨道信息
半长轴: 6861.191km
偏心率: 0.0001827
轨道倾角: 43.006°
近地点辐角 288.967°
升交点赤经 354.929°
平近点角 71.099°
近地点: 481.8km
远地点: 484.308km
周期: 94.267分钟
每日圈数: 15.275784
详细信息
固有亮度:
5
最大亮度:
2.5
卫星平台:
Starlink v1.5
覆盖范围:
全球
运营商:
太空探索技术公司
运营商所在国:
美国
制造商(研发单位):
太空探索技术公司
制造商所在国:
美国
使用方式:
暂无
卫星简介
星链(Starlink)计划是由太空探索技术公司(SpaceX)提出的一个巨型低轨卫星互联网星座项目,计划在2019年至2024年间在太空搭建由约1.2万颗卫星组成的“星链”网络,其中1584颗将部署在地球上空550千米处的近地轨道,并从2020年开始工作。该卫星仍在工作。
2D轨道图
3D轨道图
轨道高度分析图
轨道倾角分析图
轨道综合分析图
查看轨道综合分析图
交会数据列表
事件ID 空间交会对象 最接近时刻(TCA) 交会距离 交会风险概率(CRP) 交会风险指数(CRI) 操作
CDM_260914-143305-545006-401221
2026-09-14T
14:33:55+0000
0.952 km
远距离
9.717172E-6 低风险 0.55
CDM_260914-200305-545006-401221
2026-09-14T
20:03:26+0000
2.397 km
极远距离
7.074903E-7 极低风险 0.32
CDM_260914-182905-545006-401221
2026-09-14T
18:29:17+0000
2.425 km
极远距离
6.94177E-7 极低风险 0.32
与全量物体交会距离演化趋势
与全量物体交会风险概率演化趋势